Flag for Canada Weather past 2 weeks in Cambridge, Ontario, Canada

Now
63 °F

Passing clouds.


Feels Like: 63 °F
Forecast: 57 / 76 °F
Wind: 6 mph from Southwest

Location: Waterloo Well

Current Time: Jul 26, 2014 at 4:07:11 AM

Latest Report: Jul 26, 2014 at 3:00 AM


Visibility: 9 mi

Pressure: 29.93 "Hg

Humidity: 73%

Dew point: 54 °F

Location of CambridgeLocation

Historic Weather in Cambridge — Graph

°F

Cambridge temperature yesterday

Maximum temperature yesterday: 75 °F (at 2:00 PM)
Minimum temperature yesterday: 45 °F (at 6:04 AM)
Average temperature yesterday: 60 °F

Past Weeks' High & Low Weather Summary

 TemperatureHumidityPressure
High82 °F (Jul 21, 4:00 PM)100% (Jul 11, 3:00 AM)30.26 "Hg (Jul 11, 3:00 AM)
Low45 °F (Jul 17, 4:00 AM)34% (Jul 17, 3:00 PM)29.67 "Hg (Jul 15, 9:00 AM)
Average64 °F76%30.02 "Hg
* Reported Jul 11 3:00 AM — Jul 26 3:00 AM, Cambridge, Weather by CustomWeather, © 2014

Note: Actual official high and low records may vary slightly from our data, if they occured in-between our weather recording intervals... More about our weather records

Advertising

Cambridge weather history for previous 24 hours

 ConditionsComfort  
Time TempWeatherWind HumidityBarometerVisibility
3:00 AM
Jul 26
63 °FPassing clouds.6 mph73%29.93 "Hg9 mi
2:00 AM63 °FOvercast.7 mph73%29.94 "Hg9 mi
1:00 AM64 °FMostly cloudy.7 mph68%29.96 "Hg9 mi
12:00 AM64 °FOvercast.7 mph68%29.97 "Hg9 mi
11:00 PM
Jul 25
63 °FPassing clouds.7 mph73%29.96 "Hg9 mi
10:00 PM64 °FClear.9 mph68%29.97 "Hg9 mi
9:00 PM66 °FSunny.8 mph68%29.97 "Hg9 mi
8:00 PM68 °FScattered clouds.13 mph64%29.97 "Hg9 mi
7:00 PM72 °FPassing clouds.8 mph50%29.97 "Hg9 mi
6:00 PM72 °FScattered clouds.13 mph47%29.97 "Hg9 mi
5:00 PM73 °FPartly sunny.13 mph47%29.98 "Hg9 mi
4:00 PM73 °FPartly sunny.10 mph44%29.99 "Hg9 mi
3:00 PM75 °FPassing clouds.10 mph41%30.00 "Hg9 mi
2:00 PM75 °FPartly sunny.13 mph44%30.02 "Hg9 mi
1:00 PM72 °FPassing clouds.7 mph50%30.03 "Hg9 mi
12:00 PM72 °FSunny.8 mph50%30.05 "Hg9 mi
11:00 AM70 °FSunny.9 mph46%30.08 "Hg9 mi
10:00 AM68 °FSunny.7 mph46%30.08 "Hg9 mi
9:00 AM61 °FSunny.2 mph68%30.07 "Hg9 mi
8:00 AM54 °FSunny.2 mph94%30.09 "Hg9 mi
7:00 AM50 °FClear.3 mph94%30.09 "Hg9 mi
6:04 AM45 °FFog.5 mph100%30.07 "Hg2 mi
5:46 AM46 °FFog.No wind93%30.06 "Hg1 mi
5:02 AM46 °FFog.No wind100%30.05 "Hg2 mi
4:58 AM46 °FFog.2 mph100%30.04 "Hg1 mi
4:00 AM46 °FFog.No wind100%30.03 "Hg1 mi
Weather by CustomWeather, © 2014

See weather overviewHow to use our weather pages